Regional Weather Roundup
Issued by NWS Columbia, SC

Home | Current Version | Previous Version | Text Only | Print | Product List | Glossary On
Versions: 1 2 3 4 5 6 7 8 9 10 11 12 13 14 15 16 17 18 19 20 21 22 23 24 25 26 27 28 29 30 31 32 33 34 35 36 37 38 39 40 41 42 43 44 45 46 47 48 49 50
000
ASUS42 KCAE 210910
RWRCAE
REGIONAL WEATHER ROUNDUP
NATIONAL WEATHER SERVICE COLUMBIA SC
500 AM EDT FRI JUL 21 2017

NOTE: "FAIR" INDICATES FEW OR NO CLOUDS BELOW 12,000 FEET WITH NO
SIGNIFICANT WEATHER AND/OR OBSTRUCTIONS TO VISIBILITY.

NOT ALL STATIONS ARE QUALITY CONTROLLED BY THE NATIONAL
WEATHER SERVICE. USE DATA WITH CAUTION...ESPECIALLY
DEWPOINT OBSERVATIONS.

SCZ001>056-GAZ040-063>065-077-211000-
...UPSTATE SOUTH CAROLINA...

CITY           SKY/WX    TMP DP  RH WIND       PRES   REMARKS
ANDERSON       CLEAR     74  71  91 CALM      30.02R
LIBERTY        SUNNY     69  69  99 CALM      30.02F FOG
SPARTANBURG    CLEAR     72  70  94 CALM      30.01S
CLEMSON        CLEAR     75  73  93 CALM      30.03S
GREENVILLE     CLEAR     78  71  79 CALM      30.03S
GREENWOOD      CLEAR     75  70  84 CALM      30.02R
GREER          CLEAR     74  69  85 SW3       30.01S
ROCK HILL      CLEAR     72  70  93 CALM      30.01S
CHESTER        SUNNY     72  72 100 CALM      30.01S
LAURENS        SUNNY     73  72  94 CALM      30.01R


...CENTRAL SOUTH CAROLINA...

CITY           SKY/WX    TMP DP  RH WIND       PRES   REMARKS
COLUMBIA APT   CLEAR     74  70  87 CALM      29.99S
COLUMBIA OWENS CLEAR     75  71  87 S3        30.01R
MCENTIRE ANGB  CLEAR     72  72 100 CALM      30.00S
ORANGEBURG     CLEAR     72  71  97 S3        30.01S
SUMTER SHAW    PTCLDY    73  71  93 CALM      29.98S
NEWBERRY       SUNNY     72  72 100 S5        30.03S
AIKEN          FAIR      70  70 100 S3        30.05R
BARNWELL       FAIR      73  73 100 CALM      30.01S
MANNING        FAIR      72  72 100 MISG      30.00S
CAMDEN         FAIR      73  72  94 S3        30.00S
LANCASTER      SUNNY     73  73 100 CALM      30.01R
WINNSBORO      SUNNY     73  70  88 MISG      30.00S


...EASTERN AND COASTAL SOUTH CAROLINA...

CITY           SKY/WX    TMP DP  RH WIND       PRES   REMARKS
MYRTLE BEACH   CLEAR     76  75  97 W3        30.01S
N MYRTLE BCH   CLEAR     77  75  93 W3        29.99S
CONWAY         FAIR      72  70  94 CALM      30.00S
MARION         FAIR      72  70  94 CALM      30.00S
HARTSVILLE     FAIR      72  70  94 CALM      29.99S
FLORENCE       PTCLDY    74  73  97 SW3       30.00S
DARLINGTON     PTCLDY    74  73  97 S5        30.00S
CHARLESTON APT CLEAR     74  71  91 W5        30.01R
MOUNT PLEASANT FAIR      77  75  94 CALM      30.01R
WALTERBORO     SUNNY     70  70 100 CALM      30.02S
BEAUFORT       CLEAR     73  72  96 CALM      30.01S


...EASTERN GEORGIA...

CITY           SKY/WX    TMP DP  RH WIND       PRES   REMARKS
AUGUSTA BUSH F CLEAR     74  72  93 CALM      29.99F FOG
AUGUSTA DANIEL PTCLDY    76  70  82 SE5       30.01S
THOMSON        CLEAR     73  71  92 W3        30.05S
WASHINGTON     FAIR      75  73  94 CALM      30.01S
CLAXTON        FAIR      72  71  98 CALM      30.01S
SYLVANIA       SUNNY     72  72 100 CALM      30.01S
STATESBORO     CLEAR     72  32  23 CALM      30.00F
SAVANNAH       CLEAR    N/A N/A N/A S3        30.02S


...SOUTHERN NORTH CAROLINA...

CITY           SKY/WX    TMP DP  RH WIND       PRES   REMARKS
CHARLOTTE      PTCLDY    76  70  82 CALM      30.01S
MONROE         CLEAR     72  69  90 SW5       30.00S
ROCKINGHAM     SUNNY     74  74 100 CALM      30.00R
RUTHERFORDTON  CLEAR     72  72  99 CALM      30.04S
ASHEVILLE      CLEAR     67  67 100 CALM      30.12S

$$



USA.gov is the U.S. government's official web portal to all federal, state and local government web resources and services.